sat.trackr.live / text

‹ back to catalog

KUIPER-00131

NORAD 68573 · 2026-072A

PAYLOAD ACTIVE UNKNOWN

§ Identity

Operator
Country
US
Launch date
2026-04-04
Launch site
AFETR
Launch vehicle
Mass (kg)
RCS (m²)

External: N2YO · Heavens-Above · Gunter

§ Orbital elements

Epoch: 2026-05-25T03:06:37.456416Z

Period
97.30 min
Inclination
51.8989°
Eccentricity
0.0001604
Mean motion
14.79941701 rev/d
Perigee alt
628.4 km
Apogee alt
630.6 km
Semi-major
7,007.6 km
B*
1.1496e-3
RAAN
297.6086°
Arg perigee
130.8096°
Mean anomaly
229.3006°
Rev number
770

§ Raw data

KUIPER-001311 68573U 26072A   26145.12960019  .00008555  00000+0  11496-2 0  99972 68573  51.8989 297.6086 0001604 130.8096 229.3006 14.79941701  7706

JSON: /api/v1/satellites/68573 · /tle

For live sub-satellite position, see the globe view (requires WebGL).

§ Visibility from observer

Set your observer location to see the next 7 days of passes ≥ 10°. The values pass through the URL so the page stays shareable.

No JS? Fill the form by hand. The geolocation button needs JavaScript.